Home > Time Zones > World Clock > Weather > Sweden > Lund > Past weeks

Flag for Sweden Weather past 2 weeks in Lund, Sweden

Now
36 °F

Mostly cloudy.


Feels Like: 24 °F
Forecast: 33 / 35 °F
Wind: 22 mph from Southwest

Location: Malmo / Sturup

Current Time: Jan 29, 2015 at 11:20:52 AM

Latest Report: Jan 29, 2015 at 10:50 AM


Visibility: N/A

Pressure: 28.94 "Hg

Humidity: 87%

Dew point: 32 °F

Location of LundLocation

Historic Weather in Lund — Graph

°F

Lund temperature yesterday

Maximum temperature yesterday: 39 °F (at 10:20 AM)
Minimum temperature yesterday: 28 °F (at 1:20 AM)
Average temperature yesterday: 36 °F

Past Weeks' High & Low Weather Summary

 TemperatureHumidityPressure
High43 °F (Jan 15, 7:20 PM)100% (Jan 15, 2:20 PM)30.27 "Hg (Jan 15, 2:20 PM)
Low23 °F (Jan 25, 5:20 AM)75% (Jan 17, 11:20 AM)28.91 "Hg (Jan 29, 2:50 AM)
Average34 °F93%29.83 "Hg
* Reported Jan 14 9:20 AM — Jan 29 9:50 AM, Lund, Weather by CustomWeather, © 2014

Note: Actual official high and low records may vary slightly from our data, if they occured in-between our weather recording intervals... More about our weather records

Advertising

Lund weather history for previous 24 hours

 ConditionsComfort  
Time TempWeatherWind HumidityBarometerVisibility
9:50 AM
Jan 29
36 °FPartly sunny.20 mph87%28.94 "HgN/A
9:20 AM36 °FPartly sunny.21 mph87%28.94 "HgN/A
8:50 AM34 °FMostly cloudy.22 mph93%28.94 "HgN/A
8:20 AM36 °FSprinkles. Overcast.23 mph87%28.94 "HgN/A
7:50 AM34 °FLight rain. Fog.20 mph93%28.94 "Hg2 mi
7:20 AM36 °FFog.20 mph87%28.94 "HgN/A
6:50 AM36 °FPartly cloudy.22 mph87%28.94 "HgN/A
6:20 AM34 °FPassing clouds.18 mph93%28.94 "HgN/A
5:50 AM36 °FOvercast.21 mph87%28.94 "HgN/A
5:20 AM36 °FPassing clouds.25 mph87%28.91 "HgN/A
4:50 AM36 °FPassing clouds.21 mph87%28.91 "HgN/A
4:20 AM36 °FPassing clouds.21 mph87%28.91 "HgN/A
3:50 AM36 °FPassing clouds.22 mph87%28.91 "HgN/A
3:20 AM36 °FOvercast.22 mph87%28.91 "HgN/A
2:50 AM36 °FPassing clouds.18 mph87%28.91 "HgN/A
2:20 AM36 °FMostly cloudy.20 mph87%28.94 "HgN/A
1:50 AM37 °FMostly cloudy.21 mph81%28.94 "HgN/A
1:20 AM37 °FMostly cloudy.22 mph87%28.94 "HgN/A
12:50 AM37 °FMostly cloudy.20 mph87%28.94 "HgN/A
12:20 AM37 °FMostly cloudy.22 mph93%28.94 "HgN/A
11:50 PM
Jan 28
37 °FLow clouds.23 mph93%28.94 "HgN/A
11:20 PM37 °FLight rain. Low clouds.22 mph93%28.97 "Hg5 mi
10:50 PM36 °FLight rain. Low clouds.25 mph93%28.97 "Hg4 mi
10:20 PM36 °FLight rain. Low clouds.23 mph93%29.00 "Hg3 mi
9:50 PM36 °FLight rain. Low clouds.26 mph93%29.00 "Hg2 mi
9:20 PM36 °FLight rain. Low clouds.29 mph100%29.03 "Hg3 mi
8:50 PM37 °FRain. Low clouds.32 mph93%29.06 "Hg2 mi
8:20 PM37 °FLight rain. Low clouds.28 mph93%29.06 "Hg3 mi
7:50 PM37 °FLight rain. Low clouds.28 mph93%29.12 "Hg2 mi
7:20 PM37 °FLight rain. Low clouds.25 mph100%29.15 "Hg2 mi
6:50 PM37 °FRain. Low clouds.25 mph93%29.18 "Hg1 mi
6:20 PM37 °FLight rain. Low clouds.25 mph93%29.21 "Hg2 mi
5:50 PM37 °FLight rain. Low clouds.24 mph93%29.24 "Hg2 mi
5:20 PM37 °FFog.21 mph93%29.27 "Hg4 mi
4:50 PM37 °FFog.21 mph93%29.30 "Hg4 mi
4:20 PM37 °FFog.20 mph100%29.33 "Hg4 mi
3:50 PM39 °FFog.20 mph93%29.36 "Hg4 mi
3:20 PM39 °FFog.22 mph87%29.39 "Hg4 mi
2:50 PM39 °FFog.22 mph93%29.42 "Hg5 mi
2:20 PM39 °FFog.22 mph93%29.42 "Hg5 mi
1:50 PM39 °FLight rain. Fog.22 mph93%29.45 "Hg5 mi
1:20 PM39 °FFog.20 mph93%29.47 "Hg4 mi
12:50 PM37 °FFog.21 mph100%29.50 "Hg4 mi
12:20 PM39 °FFog.20 mph93%29.53 "Hg4 mi
11:50 AM39 °FFog.20 mph93%29.56 "Hg4 mi
11:20 AM39 °FFog.18 mph93%29.59 "Hg4 mi
Weather by CustomWeather, © 2014

See weather overviewHow to use our weather pages